{"data":{"norad_id":57650,"epoch":"2026-05-24T23:14:05.369280Z","epoch_age_seconds":74420,"freshness":"FRESH","line1":"1 57650U 23122U   26144.96811770  .00003152  00000+0  12396-3 0  9993","line2":"2 57650  43.0083  21.6437 0000757 250.1125 109.9646 15.27597317153877","mean_motion":15.27597317,"eccentricity":7.57e-5,"inclination_deg":43.0083,"raan_deg":21.6437,"arg_perigee_deg":250.1125,"mean_anomaly_deg":109.9646,"bstar":0.00012396,"rev_number":15387,"period_min":94.265680096111,"perigee_km":482.47785533953,"apogee_km":483.51663106395,"semimajor_km":6861.1342432017,"source":"CELESTRAK","updated_at":"2026-05-25T13:38:18.365757Z"}}